Time,TemperatureF,DewpointF,PressureIn,WindDirection,WindDirectionDegrees,WindSpeedMPH,WindSpeedGustMPH,Humidity,HourlyPrecipIn,Conditions,Clouds,dailyrainin,SoftwareType,DateUTC
2013-03-17 00:00:00,63.8,47.3,29.92,SW,229,1.0,6.0,55,0.00,OVC,,0.00,WeatherDisplay:10.37,2013-03-17 04:00:00,
2013-03-17 00:10:00,63.9,46.9,29.92,SSW,213,0.0,4.0,54,0.00,BKN,,0.00,WeatherDisplay:10.37,2013-03-17 04:10:00,
2013-03-17 00:20:00,63.9,47.4,29.92,WSW,242,1.0,7.0,55,0.00,BKN,,0.00,WeatherDisplay:10.37,2013-03-17 04:20:00,
2013-03-17 00:30:00,63.6,47.1,29.92,WSW,246,2.0,4.0,55,0.00,BKN,,0.00,WeatherDisplay:10.37,2013-03-17 04:30:00,
2013-03-17 00:40:00,63.4,47.4,29.92,WSW,238,1.0,5.0,56,0.00,CLR,,0.00,WeatherDisplay:10.37,2013-03-17 04:40:00,
2013-03-17 00:50:00,63.4,46.9,29.92,WSW,240,2.0,5.0,55,0.00,CLR,,0.00,WeatherDisplay:10.37,2013-03-17 04:50:00,
2013-03-17 01:00:00,63.6,47.1,29.92,WSW,246,3.0,7.0,55,0.00,CLR,,0.00,WeatherDisplay:10.37,2013-03-17 05:00:00,
2013-03-17 01:10:00,64.0,47.0,29.92,SW,232,3.0,7.0,54,0.00,CLR,,0.00,WeatherDisplay:10.37,2013-03-17 05:10:00,
2013-03-17 01:20:00,64.3,46.8,29.92,SW,222,2.0,10.0,53,0.00,CLR,,0.00,WeatherDisplay:10.37,2013-03-17 05:20:00,
2013-03-17 01:30:00,64.1,46.6,29.92,WSW,240,3.0,6.0,53,0.00,CLR,,0.00,WeatherDisplay:10.37,2013-03-17 05:30:00,
2013-03-17 01:40:00,63.9,46.5,29.92,WSW,242,5.0,6.0,53,0.00,SCT,,0.00,WeatherDisplay:10.37,2013-03-17 05:40:00,
2013-03-17 01:50:00,63.7,46.2,29.92,WSW,244,1.0,7.0,53,0.00,SCT,,0.00,WeatherDisplay:10.37,2013-03-17 05:50:00,
2013-03-17 02:00:00,63.4,46.5,29.92,WSW,249,2.0,6.0,54,0.00,SCT,,0.00,WeatherDisplay:10.37,2013-03-17 06:00:00,
2013-03-17 02:10:00,63.4,46.4,29.92,WSW,246,1.0,6.0,54,0.00,SCT,,0.00,WeatherDisplay:10.37,2013-03-17 06:10:00,
2013-03-17 02:20:00,63.6,46.1,29.92,WSW,239,3.0,8.0,53,0.00,SCT,,0.00,WeatherDisplay:10.37,2013-03-17 06:20:00,
2013-03-17 02:30:00,63.6,46.1,29.92,SW,233,5.0,10.0,53,0.00,SCT,,0.00,WeatherDisplay:10.37,2013-03-17 06:30:00,
2013-03-17 02:40:00,63.5,46.1,29.92,SW,227,2.0,5.0,53,0.00,BKN,,0.00,WeatherDisplay:10.37,2013-03-17 06:40:00,
2013-03-17 02:50:00,63.4,46.0,29.92,SW,236,3.0,6.0,53,0.00,OVC,,0.00,WeatherDisplay:10.37,2013-03-17 06:50:00,
2013-03-17 03:00:00,63.2,46.3,29.92,WSW,253,1.0,7.0,54,0.00,OVC,,0.00,WeatherDisplay:10.37,2013-03-17 07:00:00,
2013-03-17 03:10:00,62.7,45.8,29.92,West,262,0.0,5.0,54,0.00,OVC,,0.00,WeatherDisplay:10.37,2013-03-17 07:10:00,
2013-03-17 03:20:00,62.5,46.1,29.92,South,179,0.0,6.0,55,0.00,OVC,,0.00,WeatherDisplay:10.37,2013-03-17 07:20:00,
2013-03-17 03:30:00,62.5,46.1,29.91,WSW,242,1.0,5.0,55,0.00,OVC,,0.00,WeatherDisplay:10.37,2013-03-17 07:30:00,
2013-03-17 03:40:00,62.5,46.1,29.91,SW,228,2.0,4.0,55,0.00,BKN,,0.00,WeatherDisplay:10.37,2013-03-17 07:40:00,
2013-03-17 03:50:00,61.8,45.9,29.91,SW,221,0.0,6.0,56,0.00,SCT,,0.00,WeatherDisplay:10.37,2013-03-17 07:50:00,
2013-03-17 04:00:00,61.1,46.2,29.91,SW,225,0.0,2.0,58,0.00,SCT,,0.00,WeatherDisplay:10.37,2013-03-17 08:00:00,
2013-03-17 04:10:00,60.6,45.7,29.91,SW,225,0.0,3.0,58,0.00,CLR,,0.00,WeatherDisplay:10.37,2013-03-17 08:10:00,
2013-03-17 04:20:00,61.3,45.5,29.91,SW,236,3.0,6.0,56,0.00,CLR,,0.00,WeatherDisplay:10.37,2013-03-17 08:20:00,
2013-03-17 04:30:00,61.8,45.9,29.91,SW,227,3.0,8.0,56,0.00,CLR,,0.00,WeatherDisplay:10.37,2013-03-17 08:30:00,
2013-03-17 04:40:00,62.0,45.6,29.91,SW,229,1.0,10.0,55,0.00,CLR,,0.00,WeatherDisplay:10.37,2013-03-17 08:40:00,
2013-03-17 04:50:00,61.8,45.5,29.91,SW,236,5.0,14.0,55,0.00,CLR,,0.00,WeatherDisplay:10.37,2013-03-17 08:50:00,
2013-03-17 05:00:00,61.4,45.6,29.91,SW,225,8.0,13.0,56,0.00,CLR,,0.00,WeatherDisplay:10.37,2013-03-17 09:00:00,
2013-03-17 05:10:00,61.0,45.6,29.91,WSW,240,5.0,12.0,57,0.00,CLR,,0.00,WeatherDisplay:10.37,2013-03-17 09:10:00,
2013-03-17 05:20:00,60.5,46.1,29.91,SW,230,5.0,8.0,59,0.00,CLR,,0.00,WeatherDisplay:10.37,2013-03-17 09:20:00,
2013-03-17 05:30:00,60.1,46.2,29.92,SW,223,6.0,15.0,60,0.00,CLR,,0.00,WeatherDisplay:10.37,2013-03-17 09:30:00,
2013-03-17 05:40:00,59.6,46.6,29.92,SW,234,2.0,12.0,62,0.00,CLR,,0.00,WeatherDisplay:10.37,2013-03-17 09:40:00,
2013-03-17 05:50:00,59.1,46.5,29.92,SW,234,2.0,7.0,63,0.00,CLR,,0.00,WeatherDisplay:10.37,2013-03-17 09:50:00,
2013-03-17 06:00:00,58.9,46.7,29.92,SW,219,3.0,13.0,64,0.00,CLR,,0.00,WeatherDisplay:10.37,2013-03-17 10:00:00,
2013-03-17 06:10:00,58.6,47.3,29.93,WSW,242,5.0,8.0,66,0.00,CLR,,0.00,WeatherDisplay:10.37,2013-03-17 10:10:00,
2013-03-17 06:20:00,58.4,47.5,29.92,WSW,250,5.0,12.0,67,0.00,CLR,,0.00,WeatherDisplay:10.37,2013-03-17 10:20:00,
2013-03-17 06:30:00,58.2,47.7,29.93,SW,216,3.0,9.0,68,0.00,CLR,,0.00,WeatherDisplay:10.37,2013-03-17 10:30:00,
2013-03-17 06:40:00,58.1,47.5,29.93,SW,223,2.0,7.0,68,0.00,CLR,,0.00,WeatherDisplay:10.37,2013-03-17 10:40:00,
2013-03-17 06:50:00,57.9,48.2,29.93,SW,231,6.0,10.0,70,0.00,CLR,,0.00,WeatherDisplay:10.37,2013-03-17 10:50:00,
2013-03-17 07:00:00,57.8,48.1,29.93,SW,216,1.0,7.0,70,0.00,CLR,,0.00,WeatherDisplay:10.37,2013-03-17 11:00:00,
2013-03-17 07:10:00,57.7,48.4,29.94,SW,221,3.0,9.0,71,0.00,CLR,,0.00,WeatherDisplay:10.37,2013-03-17 11:10:00,
2013-03-17 07:20:00,57.5,48.5,29.94,SW,228,3.0,5.0,72,0.00,CLR,,0.00,WeatherDisplay:10.37,2013-03-17 11:20:00,
2013-03-17 07:30:00,57.2,48.6,29.94,SW,222,2.0,6.0,73,0.00,CLR,,0.00,WeatherDisplay:10.37,2013-03-17 11:30:00,
2013-03-17 07:40:00,56.7,48.9,29.94,SW,228,3.0,6.0,75,0.00,CLR,,0.00,WeatherDisplay:10.37,2013-03-17 11:40:00,
2013-03-17 07:50:00,56.8,49.0,29.95,SSW,201,2.0,6.0,75,0.00,CLR,,0.00,WeatherDisplay:10.37,2013-03-17 11:50:00,
2013-03-17 08:00:00,56.7,48.9,29.95,SW,232,1.0,6.0,75,0.00,CLR,,0.00,WeatherDisplay:10.37,2013-03-17 12:00:00,
2013-03-17 08:10:00,55.7,47.5,29.95,SSE,149,0.0,5.0,74,0.00,CLR,,0.00,WeatherDisplay:10.37,2013-03-17 12:10:00,
2013-03-17 08:20:00,54.9,47.4,29.96,SSE,149,0.0,2.0,76,0.00,CLR,,0.00,WeatherDisplay:10.37,2013-03-17 12:20:00,
2013-03-17 08:30:00,54.8,47.8,29.96,SSE,149,0.0,1.0,77,0.00,CLR,,0.00,WeatherDisplay:10.37,2013-03-17 12:30:00,
2013-03-17 08:40:00,55.4,48.0,29.97,SSW,199,0.0,2.0,76,0.00,CLR,,0.00,WeatherDisplay:10.37,2013-03-17 12:40:00,
2013-03-17 08:50:00,55.9,48.4,29.96,SSW,208,1.0,3.0,76,0.00,CLR,,0.00,WeatherDisplay:10.37,2013-03-17 12:50:00,
2013-03-17 09:00:00,55.9,48.4,29.96,SSW,193,1.0,6.0,76,0.00,CLR,,0.00,WeatherDisplay:10.37,2013-03-17 13:00:00,
2013-03-17 09:10:00,56.0,48.5,29.97,SSW,192,1.0,5.0,76,0.00,CLR,,0.00,WeatherDisplay:10.37,2013-03-17 13:10:00,
2013-03-17 09:20:00,56.5,49.0,29.97,South,185,0.0,4.0,76,0.00,CLR,,0.00,WeatherDisplay:10.37,2013-03-17 13:20:00,
2013-03-17 09:30:00,57.3,49.4,29.97,ESE,119,0.0,5.0,75,0.00,CLR,,0.00,WeatherDisplay:10.37,2013-03-17 13:30:00,
2013-03-17 09:40:00,58.0,49.8,29.97,SSE,158,1.0,6.0,74,0.00,CLR,,0.00,WeatherDisplay:10.37,2013-03-17 13:40:00,
2013-03-17 09:50:00,58.8,50.1,29.97,SE,133,1.0,5.0,73,0.00,CLR,,0.00,WeatherDisplay:10.37,2013-03-17 13:50:00,
2013-03-17 10:00:00,59.5,50.5,29.97,SSE,150,2.0,6.0,72,0.00,CLR,,0.00,WeatherDisplay:10.37,2013-03-17 14:00:00,
2013-03-17 10:10:00,60.1,51.1,29.96,SSE,151,2.0,7.0,72,0.00,CLR,,0.00,WeatherDisplay:10.37,2013-03-17 14:10:00,
2013-03-17 10:20:00,61.3,51.4,29.97,SSE,158,5.0,8.0,70,0.00,CLR,,0.00,WeatherDisplay:10.37,2013-03-17 14:20:00,
2013-03-17 10:30:00,61.8,51.9,29.97,SSE,157,5.0,9.0,70,0.00,CLR,,0.00,WeatherDisplay:10.37,2013-03-17 14:30:00,
2013-03-17 10:40:00,62.5,52.2,29.97,South,181,3.0,8.0,69,0.00,CLR,,0.00,WeatherDisplay:10.37,2013-03-17 14:40:00,
2013-03-17 10:50:00,63.0,52.7,29.97,SSW,202,6.0,10.0,69,0.00,CLR,,0.00,WeatherDisplay:10.37,2013-03-17 14:50:00,
2013-03-17 11:00:00,63.5,52.4,29.97,South,177,3.0,9.0,67,0.00,CLR,,0.00,WeatherDisplay:10.37,2013-03-17 15:00:00,
2013-03-17 11:10:00,64.2,53.0,29.97,SSW,200,3.0,9.0,67,0.00,CLR,,0.00,WeatherDisplay:10.37,2013-03-17 15:10:00,
2013-03-17 11:20:00,64.4,52.8,29.96,SSE,156,7.0,12.0,66,0.00,CLR,,0.00,WeatherDisplay:10.37,2013-03-17 15:20:00,
2013-03-17 11:30:00,65.1,53.5,29.96,SE,138,7.0,9.0,66,0.00,CLR,,0.00,WeatherDisplay:10.37,2013-03-17 15:30:00,
2013-03-17 11:40:00,65.5,53.4,29.96,SSE,153,5.0,9.0,65,0.00,CLR,,0.00,WeatherDisplay:10.37,2013-03-17 15:40:00,
2013-03-17 11:50:00,65.9,53.8,29.96,SSE,148,5.0,8.0,65,0.00,CLR,,0.00,WeatherDisplay:10.37,2013-03-17 15:50:00,
2013-03-17 12:00:00,66.4,53.9,29.95,SSE,150,3.0,8.0,64,0.00,CLR,,0.00,WeatherDisplay:10.37,2013-03-17 16:00:00,
2013-03-17 12:10:00,66.4,53.9,29.95,South,186,2.0,7.0,64,0.00,CLR,,0.00,WeatherDisplay:10.37,2013-03-17 16:10:00,
2013-03-17 12:20:00,66.8,53.8,29.95,South,190,3.0,10.0,63,0.00,CLR,,0.00,WeatherDisplay:10.37,2013-03-17 16:20:00,
2013-03-17 12:30:00,67.4,53.5,29.95,WSW,248,5.0,16.0,61,0.00,CLR,,0.00,WeatherDisplay:10.37,2013-03-17 16:30:00,
2013-03-17 12:40:00,67.6,53.7,29.95,SW,230,6.0,10.0,61,0.00,CLR,,0.00,WeatherDisplay:10.37,2013-03-17 16:40:00,
2013-03-17 12:50:00,67.4,54.0,29.94,WSW,237,5.0,10.0,62,0.00,SCT,,0.00,WeatherDisplay:10.37,2013-03-17 16:50:00,
2013-03-17 13:00:00,68.1,54.1,29.94,SW,236,5.0,10.0,61,0.00,SCT,,0.00,WeatherDisplay:10.37,2013-03-17 17:00:00,
2013-03-17 13:10:00,68.2,53.8,29.93,SSW,210,1.0,10.0,60,0.00,BKN,,0.00,WeatherDisplay:10.37,2013-03-17 17:10:00,
2013-03-17 13:20:00,68.1,53.7,29.93,SSW,195,5.0,8.0,60,0.00,BKN,,0.00,WeatherDisplay:10.37,2013-03-17 17:20:00,
2013-03-17 13:30:00,68.1,54.1,29.92,WSW,246,3.0,12.0,61,0.00,BKN,,0.00,WeatherDisplay:10.37,2013-03-17 17:30:00,
2013-03-17 13:40:00,68.5,53.6,29.91,WSW,243,7.0,10.0,59,0.00,BKN,,0.00,WeatherDisplay:10.37,2013-03-17 17:40:00,
2013-03-17 13:50:00,68.7,53.3,29.91,WSW,242,8.0,14.0,58,0.00,BKN,,0.00,WeatherDisplay:10.37,2013-03-17 17:50:00,
2013-03-17 14:00:00,68.9,52.6,29.91,WSW,246,9.0,13.0,56,0.00,BKN,,0.00,WeatherDisplay:10.37,2013-03-17 18:00:00,
2013-03-17 14:10:00,69.5,52.1,29.90,WSW,250,6.0,20.0,54,0.00,SCT,,0.00,WeatherDisplay:10.37,2013-03-17 18:10:00,
2013-03-17 14:20:00,69.3,52.4,29.90,WSW,238,5.0,15.0,55,0.00,SCT,,0.00,WeatherDisplay:10.37,2013-03-17 18:20:00,
2013-03-17 14:30:00,69.8,51.9,29.90,WSW,247,6.0,13.0,53,0.00,SCT,,0.00,WeatherDisplay:10.37,2013-03-17 18:30:00,
2013-03-17 14:40:00,69.5,52.1,29.90,WSW,241,8.0,15.0,54,0.00,SCT,,0.00,WeatherDisplay:10.37,2013-03-17 18:40:00,
2013-03-17 14:50:00,69.6,51.7,29.89,WSW,237,6.0,20.0,53,0.00,SCT,,0.00,WeatherDisplay:10.37,2013-03-17 18:50:00,
2013-03-17 15:00:00,69.8,52.4,29.89,SSW,201,9.0,14.0,54,0.00,SCT,,0.00,WeatherDisplay:10.37,2013-03-17 19:00:00,
2013-03-17 15:10:00,69.5,52.6,29.89,SW,236,5.0,14.0,55,0.00,BKN,,0.00,WeatherDisplay:10.37,2013-03-17 19:10:00,
2013-03-17 15:20:00,69.4,51.5,29.89,SSW,211,8.0,20.0,53,0.00,BKN,,0.00,WeatherDisplay:10.37,2013-03-17 19:20:00,
2013-03-17 15:30:00,69.3,51.9,29.88,SW,229,5.0,14.0,54,0.00,BKN,,0.00,WeatherDisplay:10.37,2013-03-17 19:30:00,
2013-03-17 15:40:00,69.5,51.1,29.88,SSW,210,8.0,17.0,52,0.00,BKN,,0.00,WeatherDisplay:10.37,2013-03-17 19:40:00,
2013-03-17 15:50:00,69.2,51.3,29.88,SW,226,7.0,14.0,53,0.00,SCT,,0.00,WeatherDisplay:10.37,2013-03-17 19:50:00,
2013-03-17 16:00:00,68.9,51.6,29.88,SW,221,6.0,15.0,54,0.00,SCT,,0.00,WeatherDisplay:10.37,2013-03-17 20:00:00,
2013-03-17 16:10:00,68.8,52.0,29.88,SW,218,6.0,14.0,55,0.00,CLR,,0.00,WeatherDisplay:10.37,2013-03-17 20:10:00,
2013-03-17 16:20:00,68.6,51.8,29.88,SW,224,6.0,14.0,55,0.00,CLR,,0.00,WeatherDisplay:10.37,2013-03-17 20:20:00,
2013-03-17 16:30:00,68.3,51.5,29.88,SW,217,7.0,16.0,55,0.00,CLR,,0.00,WeatherDisplay:10.37,2013-03-17 20:30:00,
2013-03-17 16:40:00,68.3,51.5,29.88,WSW,239,6.0,15.0,55,0.00,CLR,,0.00,WeatherDisplay:10.37,2013-03-17 20:40:00,
2013-03-17 16:50:00,68.2,51.4,29.88,SW,216,3.0,15.0,55,0.00,CLR,,0.00,WeatherDisplay:10.37,2013-03-17 20:50:00,
2013-03-17 17:00:00,68.4,51.1,29.88,WSW,250,2.0,12.0,54,0.00,CLR,,0.00,WeatherDisplay:10.37,2013-03-17 21:00:00,
2013-03-17 17:10:00,68.4,50.6,29.87,SW,225,6.0,12.0,53,0.00,CLR,,0.00,WeatherDisplay:10.37,2013-03-17 21:10:00,
2013-03-17 17:20:00,68.9,50.5,29.88,South,191,8.0,13.0,52,0.00,CLR,,0.00,WeatherDisplay:10.37,2013-03-17 21:20:00,
2013-03-17 17:30:00,68.7,50.4,29.88,SW,233,5.0,17.0,52,0.00,CLR,,0.00,WeatherDisplay:10.37,2013-03-17 21:30:00,
2013-03-17 17:39:00,68.4,50.1,29.87,SW,230,7.0,13.0,52,0.00,CLR,,0.00,WeatherDisplay:10.37,2013-03-17 21:39:00,
2013-03-17 17:49:00,68.0,50.2,29.87,SSW,210,7.0,12.0,53,0.00,CLR,,0.00,WeatherDisplay:10.37,2013-03-17 21:49:00,
2013-03-17 18:00:00,67.8,50.0,29.87,SSW,209,2.0,13.0,53,0.00,CLR,,0.00,WeatherDisplay:10.37,2013-03-17 22:00:00,
2013-03-17 18:09:00,67.7,49.9,29.87,SSW,207,6.0,12.0,53,0.00,CLR,,0.00,WeatherDisplay:10.37,2013-03-17 22:09:00,
2013-03-17 18:19:00,67.6,49.4,29.87,SSW,207,7.0,12.0,52,0.00,CLR,,0.00,WeatherDisplay:10.37,2013-03-17 22:19:00,
2013-03-17 18:30:00,67.6,49.8,29.87,SSW,211,2.0,9.0,53,0.00,CLR,,0.00,WeatherDisplay:10.37,2013-03-17 22:30:00,
2013-03-17 18:40:00,67.5,49.2,29.87,SSW,198,6.0,12.0,52,0.00,CLR,,0.00,WeatherDisplay:10.37,2013-03-17 22:40:00,
2013-03-17 18:50:00,67.3,49.6,29.87,SSW,207,3.0,8.0,53,0.00,CLR,,0.00,WeatherDisplay:10.37,2013-03-17 22:50:00,
2013-03-17 19:01:00,67.1,49.9,29.87,SW,221,3.0,10.0,54,0.00,CLR,,0.00,WeatherDisplay:10.37,2013-03-17 23:01:00,
2013-03-17 19:10:00,66.9,49.7,29.87,SW,224,3.0,9.0,54,0.00,CLR,,0.00,WeatherDisplay:10.37,2013-03-17 23:10:00,
2013-03-17 19:20:00,66.7,50.0,29.88,SW,224,2.0,7.0,55,0.00,CLR,,0.00,WeatherDisplay:10.37,2013-03-17 23:20:00,
2013-03-17 19:31:00,66.5,49.8,29.87,SW,215,5.0,12.0,55,0.00,CLR,,0.00,WeatherDisplay:10.37,2013-03-17 23:31:00,
2013-03-17 19:40:00,66.3,49.6,29.88,SW,215,5.0,9.0,55,0.00,CLR,,0.00,WeatherDisplay:10.37,2013-03-17 23:40:00,
2013-03-17 19:50:00,66.1,49.9,29.88,SW,218,3.0,8.0,56,0.00,CLR,,0.00,WeatherDisplay:10.37,2013-03-17 23:50:00,
2013-03-17 20:01:00,65.8,49.6,29.88,SW,221,2.0,6.0,56,0.00,CLR,,0.00,WeatherDisplay:10.37,2013-03-18 00:01:00,
2013-03-17 20:10:00,65.3,49.7,29.89,SW,216,3.0,8.0,57,0.00,CLR,,0.00,WeatherDisplay:10.37,2013-03-18 00:10:00,
2013-03-17 20:20:00,64.9,49.3,29.89,WSW,238,3.0,6.0,57,0.00,CLR,,0.00,WeatherDisplay:10.37,2013-03-18 00:20:00,
2013-03-17 20:31:00,64.6,49.5,29.89,WSW,246,2.0,5.0,58,0.00,CLR,,0.00,WeatherDisplay:10.37,2013-03-18 00:31:00,
2013-03-17 20:40:00,64.3,49.6,29.89,SW,233,2.0,7.0,59,0.00,CLR,,0.00,WeatherDisplay:10.37,2013-03-18 00:40:00,
2013-03-17 20:50:00,64.0,49.4,29.89,SW,232,3.0,6.0,59,0.00,CLR,,0.00,WeatherDisplay:10.37,2013-03-18 00:50:00,
2013-03-17 21:01:00,63.6,49.9,29.89,SW,223,0.0,1.0,61,0.00,CLR,,0.00,WeatherDisplay:10.37,2013-03-18 01:01:00,
2013-03-17 21:10:00,62.9,49.7,29.89,SW,223,0.0,0.0,62,0.00,CLR,,0.00,WeatherDisplay:10.37,2013-03-18 01:10:00,
2013-03-17 21:20:00,62.1,49.7,29.89,SW,223,0.0,0.0,64,0.00,CLR,,0.00,WeatherDisplay:10.37,2013-03-18 01:20:00,
2013-03-17 21:30:00,61.0,49.6,29.89,SW,223,0.0,0.0,66,0.00,CLR,,0.00,WeatherDisplay:10.37,2013-03-18 01:30:00,
2013-03-17 21:40:00,60.1,49.5,29.89,SW,223,0.0,0.0,68,0.00,CLR,,0.00,WeatherDisplay:10.37,2013-03-18 01:40:00,
2013-03-17 21:50:00,59.4,49.2,29.90,SW,223,0.0,0.0,69,0.00,CLR,,0.00,WeatherDisplay:10.37,2013-03-18 01:50:00,
2013-03-17 22:00:00,58.7,49.3,29.90,SW,223,0.0,1.0,71,0.00,CLR,,0.00,WeatherDisplay:10.37,2013-03-18 02:00:00,
2013-03-17 22:10:00,58.6,49.6,29.90,SW,223,0.0,1.0,72,0.00,CLR,,0.00,WeatherDisplay:10.37,2013-03-18 02:10:00,
2013-03-17 22:20:00,58.3,49.3,29.90,SW,223,0.0,1.0,72,0.00,CLR,,0.00,WeatherDisplay:10.37,2013-03-18 02:20:00,
2013-03-17 22:30:00,57.6,49.3,29.90,SW,223,0.0,1.0,74,0.00,CLR,,0.00,WeatherDisplay:10.37,2013-03-18 02:30:00,
2013-03-17 22:40:00,57.5,49.3,29.91,SW,223,0.0,1.0,74,0.00,CLR,,0.00,WeatherDisplay:10.37,2013-03-18 02:40:00,
2013-03-17 22:50:00,57.4,49.5,29.91,SW,223,0.0,1.0,75,0.00,CLR,,0.00,WeatherDisplay:10.37,2013-03-18 02:50:00,
2013-03-17 23:00:00,56.2,48.8,29.91,SW,223,0.0,0.0,76,0.00,CLR,,0.00,WeatherDisplay:10.37,2013-03-18 03:00:00,
2013-03-17 23:10:00,55.8,49.1,29.91,SW,223,0.0,1.0,78,0.00,CLR,,0.00,WeatherDisplay:10.37,2013-03-18 03:10:00,
2013-03-17 23:20:00,56.4,49.6,29.91,SW,223,0.0,2.0,78,0.00,CLR,,0.00,WeatherDisplay:10.37,2013-03-18 03:20:00,
2013-03-17 23:30:00,56.6,49.5,29.92,SW,223,0.0,0.0,77,0.00,CLR,,0.00,WeatherDisplay:10.37,2013-03-18 03:30:00,
2013-03-17 23:40:00,56.3,49.2,29.92,SW,223,0.0,1.0,77,0.00,CLR,,0.00,WeatherDisplay:10.37,2013-03-18 03:40:00,
2013-03-17 23:50:00,56.3,49.8,29.92,SW,223,0.0,2.0,79,0.00,CLR,,0.00,WeatherDisplay:10.37,2013-03-18 03:50:00,